Location: Seattle
(47.6064°N, 122.3308°W)
Time: 14:42:18
(UTC-08:00)

S-56A Canister/Altair - Pass Details

Date: 11 October 2022
Orbit: 638 x 2494 km, 38.9° (Epoch: 02 December)

Event Time Altitude Azimuth Distance (km) Brightness Sun altitude
Exits shadow 04:13:11 35° 172° (S) 2,193 9.6 -31.9°
Drops below altitude 10° 04:18:06 10° 138° (SE) 3,155 10.8 -31.1°
Sets 04:20:37 0° 131° (SE) 3,897 11.4 -30.7°
